TimeCST,TemperatureF,Dew PointF,Humidity,Sea Level PressureIn,VisibilityMPH,Wind Direction,Wind SpeedMPH,Gust SpeedMPH,PrecipitationIn,Events,Conditions,WindDirDegrees,DateUTC
12:15 AM,-0.8,-8.3,70,30.10,10.0,West,11.5,-,N/A,,Clear,260,2014-02-08 06:15:00
12:35 AM,-2.2,-9.2,72,30.10,10.0,West,9.2,-,N/A,,Clear,260,2014-02-08 06:35:00
12:55 AM,-3.1,-9.4,74,30.10,10.0,West,6.9,-,N/A,,Clear,270,2014-02-08 06:55:00
1:15 AM,-3.8,-9.9,75,30.10,10.0,West,4.6,-,N/A,,Clear,270,2014-02-08 07:15:00
1:35 AM,-4.4,-9.8,78,30.10,10.0,West,4.6,-,N/A,,Clear,270,2014-02-08 07:35:00
1:55 AM,-5.8,-11.0,78,30.10,10.0,West,4.6,-,N/A,,Clear,270,2014-02-08 07:55:00
2:15 AM,-5.1,-9.4,82,30.10,10.0,Calm,Calm,-,N/A,,Clear,0,2014-02-08 08:15:00
2:35 AM,-4.9,-9.0,82,30.09,10.0,Calm,Calm,-,N/A,,Clear,0,2014-02-08 08:35:00
2:55 AM,-6.3,-9.9,84,30.10,10.0,Calm,Calm,-,N/A,,Clear,0,2014-02-08 08:55:00
3:15 AM,-11.0,-14.4,85,30.10,10.0,West,3.5,-,N/A,,Clear,280,2014-02-08 09:15:00
3:35 AM,-13.0,-15.7,88,30.10,10.0,WSW,3.5,-,N/A,,Clear,250,2014-02-08 09:35:00
3:55 AM,-11.7,-14.4,88,30.10,5.0,Calm,Calm,-,N/A,Snow,Light Snow,0,2014-02-08 09:55:00
4:15 AM,-17.1,-20.6,84,30.10,5.0,Calm,Calm,-,N/A,Snow,Light Snow,0,2014-02-08 10:15:00
4:35 AM,-16.4,-19.8,84,30.10,10.0,Calm,Calm,-,N/A,,Clear,0,2014-02-08 10:35:00
4:55 AM,-18.0,-21.6,84,30.10,4.0,Calm,Calm,-,N/A,Snow,Light Snow,0,2014-02-08 10:55:00
5:15 AM,-21.3,-26.0,79,30.10,10.0,Calm,Calm,-,N/A,,Clear,0,2014-02-08 11:15:00
5:35 AM,-21.1,-25.8,79,30.09,10.0,Calm,Calm,-,N/A,,Clear,0,2014-02-08 11:35:00
5:55 AM,-22.5,-27.4,78,30.09,10.0,Calm,Calm,-,N/A,Snow,Light Snow,0,2014-02-08 11:55:00
6:15 AM,-21.6,-26.5,78,30.10,10.0,Calm,Calm,-,N/A,,Overcast,0,2014-02-08 12:15:00
6:35 AM,-19.7,-24.3,79,30.09,10.0,Calm,Calm,-,N/A,,Mostly Cloudy,0,2014-02-08 12:35:00
6:55 AM,-20.7,-26.0,77,30.10,10.0,Calm,Calm,-,N/A,,Scattered Clouds,0,2014-02-08 12:55:00
7:15 AM,-21.3,-26.3,77,30.10,10.0,Calm,Calm,-,N/A,,Clear,0,2014-02-08 13:15:00
7:35 AM,-20.2,-25.1,78,30.10,10.0,Calm,Calm,-,N/A,,Clear,0,2014-02-08 13:35:00
7:55 AM,-20.7,-25.8,78,30.10,10.0,Calm,Calm,-,N/A,,Clear,0,2014-02-08 13:55:00
8:15 AM,-19.5,-24.3,78,30.09,10.0,Calm,Calm,-,N/A,,Clear,0,2014-02-08 14:15:00
8:35 AM,-17.3,-22.2,79,30.10,10.0,Calm,Calm,-,N/A,,Clear,0,2014-02-08 14:35:00
8:55 AM,-14.1,-18.6,80,30.10,10.0,Calm,Calm,-,N/A,,Clear,0,2014-02-08 14:55:00
9:15 AM,-12.1,-16.6,80,30.10,10.0,Calm,Calm,-,N/A,,Clear,0,2014-02-08 15:15:00
9:35 AM,-9.8,-14.1,81,30.09,10.0,Calm,Calm,-,N/A,,Clear,0,2014-02-08 15:35:00
9:55 AM,-6.0,-9.8,84,30.09,10.0,Calm,Calm,-,N/A,,Clear,0,2014-02-08 15:55:00
10:15 AM,-3.5,-7.1,85,30.10,10.0,Calm,Calm,-,N/A,,Clear,0,2014-02-08 16:15:00
10:35 AM,-0.6,-4.0,85,30.10,10.0,Calm,Calm,-,N/A,,Clear,0,2014-02-08 16:35:00
10:55 AM,3.2,-0.6,84,30.10,10.0,SW,3.5,-,N/A,,Clear,220,2014-02-08 16:55:00
11:15 AM,3.9,-0.4,82,30.09,10.0,Calm,Calm,-,N/A,,Clear,0,2014-02-08 17:15:00
11:35 AM,4.1,-0.4,82,30.08,10.0,Calm,Calm,-,N/A,,Clear,0,2014-02-08 17:35:00
11:55 AM,5.9,-0.4,75,30.07,10.0,NNE,3.5,-,N/A,,Clear,30,2014-02-08 17:55:00
12:15 PM,6.4,-0.2,74,30.06,10.0,NE,3.5,-,N/A,,Clear,50,2014-02-08 18:15:00
12:35 PM,6.6,0.5,76,30.05,10.0,Calm,Calm,-,N/A,,Clear,0,2014-02-08 18:35:00
12:55 PM,9.0,2.1,74,30.04,10.0,Calm,Calm,-,0.02,,Clear,0,2014-02-08 18:55:00
1:15 PM,11.8,1.2,62,30.04,10.0,WSW,8.1,-,N/A,,Clear,250,2014-02-08 19:15:00
1:35 PM,11.5,0.7,62,30.03,10.0,WSW,5.8,-,0.01,,Clear,250,2014-02-08 19:35:00
1:55 PM,12.2,0.7,60,30.02,10.0,WSW,6.9,-,0.01,,Clear,250,2014-02-08 19:55:00
2:15 PM,12.2,1.4,62,30.02,10.0,WSW,6.9,-,0.01,,Clear,250,2014-02-08 20:15:00
2:35 PM,12.7,1.4,61,30.02,10.0,WSW,5.8,-,0.01,,Clear,240,2014-02-08 20:35:00
2:55 PM,13.1,1.4,60,30.02,10.0,West,3.5,-,0.02,,Clear,270,2014-02-08 20:55:00
3:15 PM,11.7,0.7,61,30.02,10.0,SW,3.5,-,N/A,,Clear,230,2014-02-08 21:15:00
3:35 PM,10.8,0.3,63,30.02,10.0,WSW,5.8,-,0.01,,Clear,240,2014-02-08 21:35:00
3:55 PM,10.4,-0.0,63,30.02,10.0,WSW,6.9,-,0.01,,Clear,240,2014-02-08 21:55:00
4:15 PM,9.1,-0.9,64,30.03,10.0,SW,6.9,-,N/A,,Clear,230,2014-02-08 22:15:00
4:35 PM,7.7,-1.5,66,30.03,10.0,SW,8.1,-,N/A,,Clear,230,2014-02-08 22:35:00
4:55 PM,6.6,-2.2,67,30.03,10.0,WSW,6.9,-,N/A,,Clear,240,2014-02-08 22:55:00
5:15 PM,4.5,-3.5,70,30.03,10.0,WSW,4.6,-,N/A,,Clear,250,2014-02-08 23:15:00
5:35 PM,7.3,-1.7,67,30.04,10.0,WSW,4.6,-,N/A,,Mostly Cloudy,240,2014-02-08 23:35:00
5:55 PM,1.4,-4.7,76,30.03,10.0,Calm,Calm,-,N/A,,Mostly Cloudy,0,2014-02-08 23:55:00
6:15 PM,2.1,-4.7,73,30.04,10.0,Calm,Calm,-,N/A,,Clear,0,2014-02-09 00:15:00
6:35 PM,0.9,-3.8,81,30.04,10.0,Calm,Calm,-,N/A,,Mostly Cloudy,0,2014-02-09 00:35:00
6:55 PM,-0.4,-5.6,79,30.04,10.0,Calm,Calm,-,N/A,,Overcast,0,2014-02-09 00:55:00
7:15 PM,2.1,-3.1,79,30.04,10.0,Calm,Calm,-,N/A,,Overcast,0,2014-02-09 01:15:00
7:35 PM,0.5,-4.5,79,30.04,10.0,Calm,Calm,-,N/A,,Overcast,0,2014-02-09 01:35:00
7:55 PM,2.7,-2.7,78,30.04,10.0,Calm,Calm,-,N/A,,Overcast,0,2014-02-09 01:55:00
8:15 PM,1.2,-4.0,79,30.04,10.0,Calm,Calm,-,N/A,,Overcast,0,2014-02-09 02:15:00
8:35 PM,1.9,-3.1,79,30.03,10.0,Calm,Calm,-,N/A,,Overcast,0,2014-02-09 02:35:00
8:55 PM,3.9,-1.3,79,30.03,10.0,Calm,Calm,-,0.01,,Overcast,0,2014-02-09 02:55:00
9:15 PM,1.8,-3.1,80,30.03,10.0,Calm,Calm,-,N/A,,Overcast,0,2014-02-09 03:15:00
9:35 PM,1.9,-2.7,81,30.04,10.0,Calm,Calm,-,N/A,,Overcast,0,2014-02-09 03:35:00
9:55 PM,2.3,-2.2,81,30.04,10.0,Calm,Calm,-,N/A,,Overcast,0,2014-02-09 03:55:00
10:15 PM,3.2,-1.3,82,30.04,10.0,Calm,Calm,-,N/A,,Overcast,0,2014-02-09 04:15:00
10:35 PM,4.8,0.1,81,30.04,10.0,Calm,Calm,-,0.01,,Overcast,0,2014-02-09 04:35:00
10:55 PM,7.0,2.3,81,30.03,10.0,WNW,3.5,-,0.01,,Overcast,300,2014-02-09 04:55:00
11:15 PM,7.3,2.1,79,30.03,10.0,NNW,3.5,-,N/A,,Overcast,330,2014-02-09 05:15:00
11:35 PM,7.0,2.3,81,30.03,10.0,NW,4.6,-,N/A,,Overcast,310,2014-02-09 05:35:00
11:55 PM,7.7,2.3,79,30.02,10.0,NW,4.6,-,0.01,,Overcast,310,2014-02-09 05:55:00